Wind_Speed
56 55 57 59 56 52 50 50 50 51 50 49 48 47 46 46 46 45 43 41 38 36 35 35 35 36 37 38 38 37 36 35 34 34 34 34 33 32 31 29 29 29
59 58 58 60 59 56 53 51 52 52 52 51 49 48 47 47 47 45 43 41 39 38 39 40 39 39 38 39 39 39 39 38 37 37 36 37 37 36 35 33 32 31
60 59 59 61 63 62 59 56 55 54 53 51 49 49 47 46 45 42 40 41 41 40 39 41 43 44 42 41 40 41 41 41 40 39 39 39 39 38 38 37 36 34
61 63 64 66 66 65 63 60 59 57 55 53 51 50 48 46 44 42 43 44 44 42 40 42 45 47 46 45 43 42 42 42 42 42 42 41 41 41 40 40 39 38
64 65 66 68 67 66 63 60 59 58 57 55 54 53 51 49 48 49 50 50 50 49 49 51 53 52 50 49 48 46 44 43 43 44 44 44 43 43 43 42 41 41
66 64 63 64 64 64 63 61 58 57 56 56 56 55 54 53 53 54 55 55 55 56 58 60 61 59 55 52 51 51 49 46 44 45 45 45 46 46 45 45 45 44
63 61 59 58 57 58 60 60 58 56 55 55 55 56 57 57 58 59 59 59 60 61 63 64 64 63 59 55 53 53 53 50 47 46 46 46 46 47 48 47 47 47
59 57 56 56 56 57 59 59 59 59 57 56 56 57 59 60 61 63 64 64 64 64 65 65 65 64 61 57 55 54 55 55 52 50 49 48 48 48 49 50 49 49
59 56 56 58 60 62 63 63 64 65 63 61 59 59 59 61 64 66 67 66 65 65 64 64 63 61 59 57 55 54 54 56 56 55 54 53 52 50 50 51 51 51
58 57 58 61 64 65 66 67 68 68 67 64 62 61 62 65 67 68 67 67 66 65 64 62 61 59 57 56 55 53 52 54 55 55 55 56 56 55 53 52 52 52
58 59 61 64 65 65 65 66 66 66 65 64 64 66 69 71 72 71 69 68 67 64 62 61 59 58 57 56 55 53 52 52 53 54 55 56 57 58 57 55 54 54
59 61 63 65 67 68 67 66 66 67 68 68 69 71 73 73 74 73 70 69 67 63 61 61 61 59 58 58 56 55 54 54 55 56 56 56 58 59 59 58 57 57
58 59 60 61 65 68 68 68 69 70 70 70 71 71 70 70 69 68 66 64 64 65 63 62 61 59 57 58 57 56 55 54 54 55 55 55 56 57 58 59 58 58
58 57 56 56 59 65 68 69 70 70 69 68 66 63 62 63 61 61 61 58 59 66 67 62 59 56 54 53 53 53 52 52 52 53 54 54 54 55 56 58 58 58
59 59 58 56 58 61 64 66 68 68 67 65 62 59 59 61 60 61 63 62 62 68 68 63 58 54 51 49 48 49 50 51 52 52 51 52 52 54 56 57 58 58
60 61 61 60 61 62 63 65 65 65 64 63 61 59 58 60 61 62 65 66 65 65 63 60 58 56 55 53 50 49 49 50 51 51 50 50 50 51 54 56 59 60
61 62 63 63 65 66 68 68 65 62 61 60 58 58 59 60 61 62 63 64 63 61 58 57 57 58 59 58 56 53 51 51 52 53 54 55 54 53 53 54 56 59
61 62 64 64 64 66 67 67 64 61 60 59 58 58 58 59 60 60 61 63 63 61 58 58 59 59 60 60 60 58 56 57 58 59 60 61 61 60 58 57 57 57
62 63 64 65 65 65 66 67 66 64 63 63 62 61 59 59 59 60 61 63 63 62 60 61 62 63 62 62 62 61 60 61 63 64 63 63 64 65 64 63 62 60
63 64 64 65 66 67 67 67 68 67 66 65 65 65 64 63 63 62 61 63 63 63 63 63 64 65 65 64 64 64 65 66 66 66 65 64 64 66 67 68 68 66
64 65 64 65 67 68 68 68 68 68 67 67 67 67 67 66 66 65 63 63 64 65 65 66 67 67 68 68 68 69 69 69 68 67 66 66 66 67 68 69 70 71
64 65 65 65 67 69 69 69 68 68 68 69 69 69 69 68 68 68 68 68 68 69 69 70 70 71 72 72 72 72 72 70 69 68 68 68 69 69 70 70 71 73
63 63 64 65 66 68 69 69 68 68 68 69 70 70 70 70 70 70 71 71 72 72 72 72 73 73 74 74 74 73 73 72 71 71 71 71 72 72 73 73 74 75
60 61 62 64 65 66 68 69 69 68 68 69 69 70 70 70 70 71 71 72 72 72 72 73 74 74 74 75 75 75 74 74 74 74 74 74 74 75 75 76 76 77
58 59 60 62 64 66 67 69 69 69 69 69 68 68 68 69 69 70 71 71 72 72 73 74 74 75 75 76 76 76 76 76 76 77 77 77 77 77 77 77 78 78
58 58 59 61 63 65 66 68 68 69 68 68 67 67 67 68 69 70 71 72 73 74 75 75 76 76 76 76 77 77 78 78 79 79 79 79 79 79 79 79 79 79
Wind_Direction
271 273 274 275 274 272 271 272 273 274 275 276 278 278 278 280 283 283 281 282 280 276 280 286 287 284 278 273 272 273 273 272 271 269 266 265 265 265 265 266 267 268
271 271 272 274 274 271 269 270 272 273 274 276 277 278 279 280 281 280 278 278 278 278 281 285 287 286 282 275 271 271 271 271 270 269 268 267 267 267 267 267 267 268
270 270 270 272 273 273 271 270 271 273 274 275 276 277 279 280 279 278 276 276 277 277 281 286 287 285 281 277 273 270 269 269 268 268 268 267 267 267 268 268 268 270
266 268 269 270 272 274 274 273 274 275 276 277 277 277 279 279 278 278 280 280 279 276 278 285 289 288 281 275 273 271 268 267 266 266 266 265 265 266 266 267 267 268
265 267 270 271 272 273 274 275 276 277 278 278 277 278 279 277 276 277 279 280 279 276 276 281 286 288 284 276 271 270 269 267 266 265 265 264 264 264 264 265 265 265
265 268 270 273 275 276 276 277 276 277 277 277 277 278 279 278 277 277 278 279 279 278 279 281 284 287 286 279 272 269 267 267 265 264 264 265 265 265 264 264 263 263
264 267 269 272 274 275 276 277 277 276 276 276 277 279 279 279 278 277 278 279 280 280 281 283 284 286 286 282 276 270 266 265 265 264 264 264 265 265 264 264 263 263
260 262 265 266 267 269 271 273 274 274 274 275 276 277 277 277 277 276 277 278 279 280 281 283 284 285 284 281 277 272 266 262 262 264 265 264 265 265 264 263 263 263
259 259 259 260 261 263 265 267 269 271 273 274 274 274 274 274 274 275 276 278 278 279 281 282 282 281 279 277 274 271 266 262 261 263 264 264 264 264 263 262 262 262
256 257 257 258 259 262 264 266 268 270 272 272 272 271 272 273 274 274 276 278 278 279 280 279 278 276 274 272 271 269 267 264 263 263 265 265 264 262 262 261 260 261
252 254 255 256 258 260 262 264 266 268 269 270 270 271 273 275 275 275 276 276 277 277 277 276 275 273 272 270 268 269 270 270 268 268 268 267 265 262 261 260 259 259
249 251 253 256 258 259 260 262 263 265 267 269 271 273 275 275 275 276 276 275 274 273 272 272 273 274 273 270 269 270 272 273 273 272 271 270 266 262 260 259 259 259
250 251 255 257 258 259 260 261 263 264 267 269 271 273 275 275 276 277 278 277 275 272 270 271 273 274 273 271 270 271 272 272 272 272 271 271 268 264 261 260 260 260
252 252 254 256 259 261 260 260 262 264 266 268 269 271 272 273 274 275 274 273 273 274 275 276 276 275 272 270 270 270 270 269 270 271 271 271 269 265 262 260 260 260
254 254 254 255 258 260 260 260 261 262 264 266 267 266 266 269 269 270 270 270 271 275 279 281 278 274 270 268 269 269 268 268 270 270 270 271 271 268 264 261 260 259
256 255 254 253 253 255 257 260 262 263 263 264 265 264 265 266 267 267 270 271 272 274 277 278 277 275 272 270 269 269 268 268 269 269 269 271 271 270 267 265 263 261
258 257 256 255 254 255 257 259 261 262 262 262 262 262 261 263 265 267 269 269 270 271 272 273 274 275 275 274 272 270 268 268 270 272 274 274 273 272 269 266 265 264
258 258 258 258 258 259 259 260 260 260 261 261 261 260 260 261 264 267 267 267 268 269 270 271 271 271 272 273 273 272 271 271 272 274 276 277 277 276 273 269 266 265
258 259 260 260 260 259 259 259 258 258 258 260 260 260 259 259 260 263 265 265 265 266 266 268 269 269 269 270 271 271 271 272 273 274 274 275 275 276 275 274 271 268
260 260 261 261 260 259 258 258 258 257 257 257 258 258 259 258 258 260 260 260 261 262 264 265 265 266 266 267 268 269 269 271 272 272 272 272 272 273 273 274 273 271
259 260 260 259 259 259 259 258 258 258 258 258 258 258 258 258 258 257 256 256 257 259 260 261 262 262 263 265 267 268 269 269 270 270 270 269 269 269 270 271 272 272
257 258 258 257 257 257 258 258 258 258 258 258 258 257 257 257 256 256 255 255 256 257 258 259 260 261 262 264 265 266 267 267 268 268 268 268 268 267 267 268 269 270
256 256 256 255 255 255 256 257 258 258 257 257 257 256 255 255 255 255 255 255 256 257 259 259 260 261 262 263 264 265 266 266 267 267 267 267 267 267 266 266 267 267
255 255 254 254 254 254 256 257 258 258 258 257 257 256 255 255 255 255 256 256 257 258 259 260 261 261 262 263 263 264 266 267 267 268 268 268 268 268 268 267 267 267
254 254 253 253 253 254 256 257 259 259 259 258 257 257 256 256 256 256 256 256 257 259 260 261 261 262 262 263 265 266 267 269 270 271 271 271 271 271 271 270 270 269
253 251 251 251 252 253 254 256 257 258 258 258 257 257 257 257 256 256 256 257 258 259 260 261 261 262 263 264 266 267 269 270 271 272 273 273 273 273 273 272 272 271
Height
10561 10560 10555 10551 10555 10560 10563 10566 10567 10568 10569 10571 10572 10572 10572 10571 10571 10572 10572 10573 10573 10573 10573 10573 10573 10573 10573 10573 10574 10574 10574 10574 10574 10574 10574 10575 10575 10575 10575 10576 10577 10577
10557 10556 10551 10544 10545 10551 10557 10560 10561 10562 10564 10565 10566 10566 10566 10566 10566 10567 10567 10568 10568 10568 10568 10567 10568 10568 10568 10568 10568 10569 10569 10570 10570 10571 10571 10571 10571 10572 10572 10572 10573 10573
10550 10548 10546 10540 10538 10543 10550 10554 10555 10557 10558 10560 10561 10561 10561 10561 10561 10562 10562 10563 10563 10563 10563 10562 10562 10563 10563 10563 10563 10563 10563 10564 10565 10565 10566 10567 10567 10567 10568 10568 10569 10569
10543 10542 10540 10538 10537 10538 10542 10547 10550 10551 10552 10553 10554 10554 10555 10555 10556 10557 10557 10558 10558 10557 10556 10557 10557 10558 10558 10558 10557 10557 10558 10558 10558 10559 10560 10561 10562 10563 10563 10564 10565 10565
10539 10538 10535 10534 10535 10534 10537 10541 10543 10544 10545 10546 10547 10547 10548 10549 10550 10551 10551 10551 10552 10551 10550 10550 10551 10552 10552 10552 10552 10552 10552 10552 10553 10553 10554 10555 10556 10557 10558 10559 10560 10561
10536 10535 10531 10530 10529 10528 10530 10533 10536 10537 10539 10539 10540 10541 10541 10542 10543 10543 10544 10544 10545 10545 10544 10544 10544 10545 10546 10546 10546 10546 10547 10547 10547 10548 10549 10550 10551 10552 10553 10553 10554 10555
10532 10530 10528 10526 10524 10523 10523 10524 10527 10530 10532 10533 10534 10535 10535 10536 10536 10536 10536 10537 10538 10538 10538 10537 10537 10537 10538 10539 10540 10540 10540 10541 10541 10542 10543 10544 10545 10546 10546 10547 10548 10549
10527 10526 10525 10523 10521 10519 10518 10518 10520 10523 10526 10529 10530 10530 10529 10529 10529 10529 10529 10530 10531 10531 10531 10530 10530 10530 10531 10531 10532 10532 10533 10534 10534 10536 10537 10538 10539 10539 10540 10541 10542 10543
10522 10522 10521 10518 10515 10514 10514 10514 10515 10517 10520 10523 10525 10525 10524 10523 10522 10522 10522 10523 10524 10525 10524 10524 10523 10523 10523 10523 10523 10524 10524 10526 10527 10528 10530 10531 10532 10533 10533 10534 10535 10536
10517 10518 10516 10512 10510 10510 10512 10511 10510 10511 10513 10516 10518 10518 10517 10516 10515 10516 10518 10517 10517 10517 10517 10516 10516 10517 10517 10516 10516 10517 10518 10518 10520 10521 10522 10524 10525 10526 10526 10527 10529 10530
10514 10514 10511 10508 10506 10507 10508 10507 10505 10504 10504 10507 10510 10509 10508 10507 10506 10508 10512 10511 10509 10509 10508 10508 10509 10510 10510 10510 10510 10512 10512 10512 10513 10514 10515 10516 10517 10518 10519 10520 10522 10523
10507 10507 10506 10504 10502 10502 10503 10502 10500 10498 10497 10499 10501 10499 10498 10497 10495 10497 10500 10500 10500 10502 10501 10501 10502 10503 10503 10503 10504 10506 10506 10506 10505 10506 10506 10507 10508 10509 10511 10512 10514 10516
10500 10501 10501 10498 10494 10493 10496 10495 10493 10493 10492 10493 10493 10492 10489 10487 10486 10487 10487 10487 10487 10490 10494 10496 10497 10498 10498 10497 10497 10498 10498 10498 10498 10497 10498 10499 10500 10501 10503 10504 10506 10508
10491 10492 10492 10490 10486 10485 10487 10487 10486 10486 10486 10486 10487 10487 10483 10480 10480 10479 10478 10478 10475 10475 10481 10488 10491 10493 10493 10491 10491 10490 10490 10490 10491 10490 10490 10490 10491 10493 10495 10496 10497 10499
10481 10482 10484 10483 10478 10477 10478 10478 10477 10477 10478 10479 10480 10480 10477 10475 10474 10472 10470 10471 10470 10468 10471 10476 10481 10485 10486 10486 10485 10485 10484 10484 10484 10484 10484 10484 10484 10485 10486 10488 10489 10490
10472 10473 10476 10475 10471 10471 10471 10470 10469 10469 10470 10472 10474 10473 10471 10469 10468 10466 10464 10465 10466 10466 10466 10466 10469 10473 10476 10478 10479 10479 10478 10478 10477 10477 10477 10478 10479 10479 10480 10481 10481 10481
10464 10464 10466 10467 10466 10465 10464 10463 10464 10464 10464 10466 10467 10466 10464 10462 10460 10459 10459 10458 10459 10461 10462 10461 10461 10463 10465 10467 10469 10471 10472 10472 10471 10470 10470 10470 10472 10473 10474 10474 10474 10474
10456 10456 10457 10459 10460 10459 10457 10457 10458 10459 10457 10458 10460 10459 10458 10457 10455 10455 10454 10453 10453 10455 10456 10455 10455 10456 10457 10458 10460 10462 10464 10464 10464 10464 10464 10464 10464 10464 10465 10466 10467 10467
10449 10450 10449 10451 10451 10450 10449 10450 10451 10452 10451 10451 10452 10453 10453 10452 10450 10450 10450 10448 10448 10449 10449 10448 10448 10449 10450 10451 10453 10455 10456 10456 10457 10457 10458 10458 10457 10456 10456 10456 10457 10458
10441 10441 10442 10441 10439 10439 10441 10442 10443 10444 10444 10444 10445 10446 10446 10446 10445 10444 10444 10443 10442 10442 10442 10442 10442 10442 10443 10444 10446 10447 10448 10449 10450 10450 10451 10451 10451 10450 10449 10448 10447 10448
10433 10432 10432 10432 10430 10430 10432 10434 10435 10436 10436 10436 10437 10438 10438 10438 10437 10437 10436 10436 10435 10435 10435 10435 10435 10435 10436 10437 10438 10439 10440 10441 10442 10443 10444 10444 10443 10443 10442 10440 10439 10438
10424 10423 10423 10423 10422 10422 10423 10425 10426 10427 10428 10428 10429 10429 10429 10430 10429 10428 10428 10427 10426 10426 10426 10427 10427 10427 10428 10429 10430 10430 10431 10433 10434 10435 10436 10436 10435 10435 10434 10433 10431 10429
10415 10415 10414 10414 10414 10414 10415 10416 10417 10418 10419 10419 10420 10420 10421 10421 10421 10420 10419 10419 10419 10419 10419 10418 10418 10419 10419 10420 10421 10422 10422 10424 10425 10426 10427 10427 10426 10426 10425 10424 10423 10421
10406 10406 10405 10406 10406 10407 10407 10407 10408 10409 10409 10410 10410 10411 10412 10413 10414 10413 10412 10412 10411 10411 10410 10410 10410 10410 10410 10411 10412 10413 10414 10415 10415 10416 10417 10416 10416 10416 10415 10414 10414 10413
10397 10397 10397 10398 10398 10398 10398 10398 10398 10399 10399 10400 10402 10403 10404 10405 10406 10405 10405 10404 10403 10402 10401 10401 10401 10401 10401 10402 10403 10404 10404 10405 10405 10405 10405 10405 10404 10404 10404 10404 10403 10403
10388 10389 10389 10389 10389 10389 10389 10389 10389 10389 10390 10391 10393 10394 10396 10396 10396 10396 10395 10394 10393 10392 10391 10391 10392 10392 10393 10394 10394 10395 10395 10395 10395 10394 10394 10393 10393 10392 10392 10392 10392 10391